Location: Camp at the Woods
(43.2055°N, 93.0905°W)
Time: 07:35:26
(UTC+00:00)

CZ-4B R/B - Pass Details

Date: 05 December 2023
Orbit: 484 x 614 km, 97.9° (Epoch: 29 February)

Event Time Altitude Azimuth Distance (km) Brightness Sun altitude
Rises 12:43:15 0° 11° (NNE) 2,714 7.2 -8.2°
Reaches altitude 10° 12:45:21 10° 11° (N) 1,838 6.4 -7.8°
Maximum altitude 12:49:20 81° 284° (WNW) 582 3.8 -7.2°
Drops below altitude 10° 12:53:27 10° 198° (SSW) 1,903 6.7 -6.5°
Sets 12:55:39 0° 197° (SSW) 2,818 7.6 -6.1°
